Tracking 29892 objects as of 21-Nov-2024
HD Live streaming from Space Station
objects crossing your sky now

STARLINK-6303

Track STARLINK-6303 now!
10-day predictions
STARLINK-6303 is classified as:


NORAD ID: 56393
Int'l Code: 2023-061V
Perigee: 565.3 km
Apogee: 567.1 km
Inclination: 43.0 °
Period: 95.8 minutes
Semi major axis: 6937 km
RCS: Unknown
Launch date: May 4, 2023
Source: United States (US)
Launch site: AIR FORCE EASTERN TEST RANGE (AFETR)
Your satellite tracking list
Your tracking list is empty




NASA's NSSDC Master Catalog

Two Line Element Set (TLE):
1 56393U 23061V   24325.93151465  .00002492  00000-0  19943-3 0  9994
2 56393  43.0023 251.3443 0001326 281.1905  78.8788 15.02539203 85784
Source of the keplerian elements: AFSPC